User: anonymous   Login
Location: Unspecified
(0.0000°N, 0.0000°E)
Time: 06:27:53
(UTC+00:00)
Language:

AQUARIUS - Orbit

View from above orbital plane
View from above orbital plane
View from above satellite
View from above satellite

Ground track
Ground track

The orbit data is extracted from the following two-line orbital elements,

1 37673U 11024A   18293.91114262  .00000080  00000-0  20163-4 0  9997
2 37673  98.0117 299.8244 0002086  84.8827 335.5596 14.72851155395748
Epoch (UTC): 20 October 2018 21:52:02
Eccentricity: 0.0002086
inclination: 98.0117°
perigee height: 650 km
apogee height: 653 km
right ascension of ascending node: 299.8244°
argument of perigee: 84.8827°
revolutions per day: 14.72851155
mean anomaly at epoch: 335.5596°
orbit number at epoch: 39574

The dashed part of the orbit path shows where the satellite is in the earth's shadow,  

DLR